Location: Dos Palmas
(32.4468°N, 116.8732°W)
Time: 22:51:59
(UTC+00:00)

Cosmos 1766 - Pass Details

Date: 20 June 2021
Orbit: 521 x 542 km, 82.5° (Epoch: 01 August)

Event Time Altitude Azimuth Distance (km) Brightness Sun altitude
Rises 03:29:25 0° 353° (N) 2,652 7.5 -6.6°
Reaches altitude 10° 03:31:34 10° 353° (N) 1,762 6.5 -7.0°
Maximum altitude 03:35:26 88° 268° (W) 528 3.2 -7.7°
Drops below altitude 10° 03:39:18 10° 176° (S) 1,758 5.5 -8.3°
Sets 03:41:25 0° 175° (S) 2,646 6.4 -8.7°
